Date String (YYYY-MM-DD hh:mm:ss) UTC,Instrument flags,Ambient pressure (hPa),Sample flow (lpm),Bypass flow (lpm),Sample temperature (°C),Ambient temperature (°C),ASC tube jacket temperature (°C),LED temperature (°C),Box temperature (°C),Sample RH (%),Span deviation,Mass concentration (μg/m³),Mass concentration (μg/m³),Mass concentration (μg/m³)
DateTimeUTC,F1_M11,P_M11,Q1_M11,Q2_M11,T1_M11,T2_M11,T3_M11,T4_M11,T5_M11,U1_M11,ZSPAN_M11,X0_M11,X2_M11,X1_M11
2023-04-04 10:00:00,,0812.9,4.99,0.00,23.0,21.7,00.0,31.5,24.5,15.5,0000.0,0008.34,0003.57,0003.24
2023-04-04 10:01:00,,0812.9,5.00,0.00,23.0,21.5,00.0,31.5,24.4,15.5,0000.0,0008.52,0003.59,0003.24
2023-04-04 10:02:00,,0812.8,5.00,0.00,22.9,21.5,00.0,31.4,24.5,15.5,0000.0,0008.57,0003.62,0003.25
2023-04-04 10:03:00,,0812.9,5.02,0.00,23.1,22.3,00.0,31.4,24.9,15.4,0000.0,0007.78,0003.64,0003.28
2023-04-04 10:04:00,,0813.0,5.00,0.00,23.2,23.3,00.0,31.4,25.2,15.3,0000.0,0007.80,0003.66,0003.29
2023-04-04 10:05:00,,0813.0,5.01,0.00,23.3,23.6,00.0,31.4,25.2,15.1,0000.0,0007.62,0003.66,0003.30
2023-04-04 10:06:00,,0813.0,4.99,0.00,23.3,23.3,00.0,31.5,25.0,15.1,0000.0,0007.61,0003.67,0003.31
2023-04-04 10:07:00,,0813.0,4.99,0.00,23.2,22.9,00.0,31.5,24.9,15.1,0000.0,0006.90,0003.70,0003.33
2023-04-04 10:08:00,,0813.0,5.01,0.00,23.2,22.5,00.0,31.5,24.7,15.1,0000.0,0006.89,0003.69,0003.32
2023-04-04 10:09:00,,0813.0,5.01,0.00,23.1,22.1,00.0,31.5,24.6,15.1,0000.0,0006.64,0003.70,0003.33
2023-04-04 10:10:00,,0813.0,5.00,0.00,23.1,21.9,00.0,31.5,24.5,15.2,0000.0,0006.68,0003.70,0003.33
2023-04-04 10:11:00,,0813.0,4.99,0.00,23.0,21.6,00.0,31.5,24.4,15.1,0000.0,0006.23,0003.68,0003.30
2023-04-04 10:12:00,,0813.0,5.01,0.00,23.1,21.9,00.0,31.5,24.7,15.1,0000.0,0005.73,0003.64,0003.29
2023-04-04 10:13:00,,0813.1,5.02,0.00,23.2,22.8,00.0,31.4,25.1,15.0,0000.0,0005.60,0003.59,0003.29
2023-04-04 10:14:00,,0813.2,5.00,0.00,23.3,23.7,00.0,31.4,25.3,14.9,0000.0,0005.54,0003.55,0003.27
2023-04-04 10:15:00,,0813.2,5.00,0.00,23.4,23.7,00.0,31.5,25.2,14.9,0000.0,0005.37,0003.53,0003.27
2023-04-04 10:16:00,,0813.2,4.99,0.00,23.4,23.3,00.0,31.6,25.0,14.9,0000.0,0005.43,0003.54,0003.26
2023-04-04 10:17:00,,0813.2,5.02,0.00,23.3,22.9,00.0,31.6,24.9,14.9,0000.0,0005.34,0003.52,0003.25
2023-04-04 10:18:00,,0813.2,5.00,0.00,23.3,22.5,00.0,31.6,24.8,14.9,0000.0,0005.41,0003.50,0003.24
2023-04-04 10:19:00,,0813.1,5.00,0.00,23.2,22.1,00.0,31.6,24.7,15.0,0000.0,0005.37,0003.51,0003.26
2023-04-04 10:20:00,,0813.0,4.99,0.00,23.2,21.8,00.0,31.6,24.6,15.0,0000.0,0005.31,0003.49,0003.25
2023-04-04 10:21:00,,0813.0,5.00,0.00,23.1,21.5,00.0,31.6,24.6,15.0,0000.0,0005.43,0003.48,0003.24
2023-04-04 10:22:00,,0813.0,5.00,0.00,23.1,21.3,00.0,31.6,24.5,15.1,0000.0,0005.95,0003.51,0003.26
2023-04-04 10:23:00,,0813.0,5.01,0.00,23.1,21.5,00.0,31.5,24.6,15.1,0000.0,0006.54,0003.53,0003.26
2023-04-04 10:24:00,,0813.1,4.99,0.00,23.2,22.6,00.0,31.5,25.0,15.0,0000.0,0006.73,0003.52,0003.25
2023-04-04 10:25:00,,0813.1,5.00,0.00,23.3,23.5,00.0,31.5,25.3,14.9,0000.0,0006.60,0003.49,0003.22
2023-04-04 10:26:00,,0813.1,5.01,0.00,23.4,23.7,00.0,31.5,25.2,14.8,0000.0,0006.54,0003.45,0003.18
2023-04-04 10:27:00,,0813.1,4.99,0.00,23.4,23.3,00.0,31.6,25.0,14.8,0000.0,0006.26,0003.36,0003.13
2023-04-04 10:28:00,,0813.1,4.99,0.00,23.3,22.9,00.0,31.6,24.9,14.8,0000.0,0005.94,0003.29,0003.06
2023-04-04 10:29:00,,0813.0,5.01,0.00,23.3,22.6,00.0,31.6,24.8,14.8,0000.0,0005.62,0003.22,0002.95
2023-04-04 10:30:00,,0813.1,5.00,0.00,23.2,22.2,00.0,31.6,24.7,14.8,0000.0,0005.48,0003.15,0002.82
2023-04-04 10:31:00,,0813.1,4.99,0.00,23.2,22.0,00.0,31.6,24.6,14.8,0000.0,0005.28,0003.05,0002.72
2023-04-04 10:32:00,,0813.1,5.00,0.00,23.1,21.7,00.0,31.6,24.6,14.8,0000.0,0004.92,0002.91,0002.61
2023-04-04 10:33:00,,0813.2,5.00,0.00,23.1,21.5,00.0,31.6,24.6,14.8,0000.0,0004.24,0002.74,0002.48
2023-04-04 10:34:00,,0813.2,5.00,0.00,23.1,21.4,00.0,31.6,24.5,14.8,0000.0,0003.44,0002.59,0002.36
2023-04-04 10:35:00,,0813.2,5.00,0.00,23.0,21.4,00.0,31.5,24.5,14.8,0000.0,0003.09,0002.44,0002.24
2023-04-04 10:36:00,,0813.1,5.02,0.00,23.1,22.2,00.0,31.5,24.9,14.7,0000.0,0003.05,0002.36,0002.15
2023-04-04 10:37:00,,0813.2,4.99,0.00,23.3,23.3,00.0,31.5,25.2,14.5,0000.0,0002.90,0002.26,0002.07
2023-04-04 10:38:00,,0813.2,5.00,0.00,23.4,23.7,00.0,31.5,25.3,14.4,0000.0,0002.99,0002.22,0002.01
2023-04-04 10:39:00,,0813.2,5.00,0.00,23.4,23.4,00.0,31.6,25.1,14.3,0000.0,0003.01,0002.18,0001.96
2023-04-04 10:40:00,,0813.2,5.00,0.00,23.3,23.0,00.0,31.6,24.9,14.3,0000.0,0002.98,0002.15,0001.92
2023-04-04 10:41:00,,0813.2,5.00,0.00,23.3,22.6,00.0,31.6,24.8,14.2,0000.0,0002.94,0002.10,0001.88
2023-04-04 10:42:00,,0813.2,5.02,0.00,23.2,22.2,00.0,31.6,24.7,14.2,0000.0,0003.11,0002.08,0001.84
2023-04-04 10:43:00,,0813.2,4.99,0.00,23.2,21.9,00.0,31.6,24.6,14.2,0000.0,0003.14,0002.07,0001.82
2023-04-04 10:44:00,,0813.2,4.99,0.00,23.1,21.7,00.0,31.6,24.6,14.2,0000.0,0003.14,0002.05,0001.80
2023-04-04 10:45:00,,0813.3,5.01,0.00,23.2,22.4,00.0,31.5,25.0,14.1,0000.0,0003.08,0002.04,0001.81
2023-04-04 10:46:00,,0813.4,5.01,0.00,23.3,23.4,00.0,31.5,25.3,13.9,0000.0,0003.15,0002.04,0001.80
2023-04-04 10:47:00,,0813.4,5.00,0.00,23.5,23.8,00.0,31.6,25.4,13.8,0000.0,0004.00,0002.04,0001.81
2023-04-04 10:48:00,,0813.3,5.00,0.00,23.5,23.5,00.0,31.6,25.1,13.7,0000.0,0004.61,0002.05,0001.82
2023-04-04 10:49:00,,0813.3,5.00,0.00,23.4,23.1,00.0,31.7,25.0,13.8,0000.0,0005.85,0002.08,0001.83
2023-04-04 10:50:00,,0813.3,5.01,0.00,23.3,22.7,00.0,31.7,24.9,13.8,0000.0,0005.80,0002.08,0001.84
2023-04-04 10:51:00,,0813.3,5.00,0.00,23.3,22.3,00.0,31.7,24.8,13.8,0000.0,0005.98,0002.07,0001.86
2023-04-04 10:52:00,,0813.3,5.00,0.00,23.2,22.0,00.0,31.7,24.7,13.9,0000.0,0006.34,0002.07,0001.87
2023-04-04 10:53:00,,0813.3,4.99,0.00,23.2,21.8,00.0,31.7,24.6,13.9,0000.0,0006.16,0002.07,0001.87
2023-04-04 10:54:00,,0813.4,5.00,0.00,23.1,21.6,00.0,31.7,24.5,13.9,0000.0,0006.15,0002.06,0001.86
2023-04-04 10:55:00,,0813.4,5.00,0.00,23.1,21.4,00.0,31.6,24.5,13.9,0000.0,0006.08,0002.05,0001.86
2023-04-04 10:56:00,,0813.5,5.00,0.00,23.0,21.2,00.0,31.6,24.4,14.0,0000.0,0006.10,0002.06,0001.85
2023-04-04 10:57:00,,0813.4,5.02,0.00,23.0,21.3,00.0,31.5,24.5,14.1,0000.0,0006.01,0002.07,0001.84
2023-04-04 10:58:00,,0813.4,5.00,0.00,23.1,22.2,00.0,31.5,24.9,14.0,0000.0,0006.27,0002.07,0001.84
2023-04-04 10:59:00,,0813.5,4.99,0.00,23.3,23.3,00.0,31.5,25.2,13.9,0000.0,0005.77,0002.09,0001.84
